Location: Crescent
(42.8242°N, 73.7329°W)
Time: 01:05:30
(UTC+00:00)

Tiros 1 - Pass Details

Date: 21 February 2026
Orbit: 618 x 649 km, 48.4° (Epoch: 9 March)

Event Time Altitude Azimuth Distance (km) Brightness Sun altitude
Rises 17:41:05 0° 295° (WNW) 2,897 10.4 36.3°
Reaches altitude 10° 17:43:25 10° 293° (WNW) 1,986 9.6 36.2°
Maximum altitude 17:47:56 66° 212° (SSW) 675 8.5 36.1°
Drops below altitude 10° 17:52:26 10° 130° (SE) 1,972 10.1 35.9°
Sets 17:54:44 0° 127° (SE) 2,876 10.7 35.8°
